Miscellaneous Local Product
Issued by NWS Hastings, NE

Home | Current Version | Previous Version | Graphics & Text | Print | Product List | Glossary On
Versions: 1 2 3 4 5 6 7 8 9 10 11 12 13 14 15 16 17 18 19 20 21 22 23 24 25 26 27 28 29 30 31 32 33 34 35 36 37 38 39 40 41 42 43 44 45 46 47 48 49 50
167
AXUS43 KGID 240502
MISGRI

GID CWA HOURLY WEATHER ROUNDUP
NATIONAL WEATHER SERVICE HASTINGS NE
1100 PM CST THU FEB 23 2017

NOTE: "FAIR" INDICATES FEW OR NO CLOUDS BELOW 12,000 FEET WITH NO
SIGNIFICANT WEATHER AND/OR OBSTRUCTIONS TO VISIBILITY.

...SOUTH CENTRAL NEBRASKA...

CITY           SKY/WX    TMP DP  RH WIND       PRES   REMARKS
GRAND ISLAND   LGT SNOW  29  28  96 N18G26    29.71R FOG     WCI  16
HASTINGS       LGT SNOW  30  28  92 N17       29.70R FOG     WCI  18
KEARNEY        CLOUDY    28  25  86 N18       29.72S WCI  16
ORD            LGT SNOW  27  22  81 N17G25    29.76S WCI  14
YORK           CLOUDY    32  30  93 N22G28    29.65S WCI  19
AURORA         CLOUDY    30  29  95 N18       29.69R WCI  18
LEXINGTON      CLOUDY    28  24  85 N21       29.76R WCI  15
HOLDREGE       CLOUDY    28  27  93 N16       29.72R WCI  17
HEBRON         CLOUDY    32  31  98 N13G20    29.64S WCI  22

...NEBRASKA PANHANDLE...

CITY           SKY/WX    TMP DP  RH WIND       PRES   REMARKS
CHADRON        LGT SNOW  24  21  88 NE12      29.95R FOG     WCI  13
ALLIANCE       LGT SNOW  21  18  88 N16       29.87S FOG     WCI   7
SCOTTSBLUFF    CLOUDY    24  18  77 N13       29.90R WCI  12
SIDNEY         MIX PCPN  21  17  84 N23       29.82S FOG     WCI   5

...WESTERN AND NORTH CENTRAL NEBRASKA...

CITY           SKY/WX    TMP DP  RH WIND       PRES   REMARKS
VALENTINE      FOG       23  19  85 N20G29    29.89R VSB 1   WCI   8
AINSWORTH      CLOUDY    23  23  98 N29G35    29.85S WCI   6
ONEILL         CLOUDY    27  26  96 N20G26    29.82R WCI  13
BROKEN BOW     MIX PCPN  26  23  88 N26G32    29.75S FOG     WCI  10
IMPERIAL       FLURRIES  24  20  84 MISG      29.82R
NORTH PLATTE   LGT SNOW  25  20  81 N16G24    29.79R WCI  12
MCCOOK         CLOUDY    27  24  89 N17       29.77S WCI  14

...EASTERN NEBRASKA...

CITY           SKY/WX    TMP DP  RH WIND       PRES   REMARKS
NORFOLK        LGT SNOW  29  26  89 N13       29.70F FOG     WCI  19
SO SIOUX CITY  SNOW      33  30  88 NE20G30   29.71R VSB 1/4 WCI  21
TEKAMAH        SNOW      32  31  96 N16       29.69R VSB 1/2 WCI  21
COLUMBUS       CLOUDY    30  27  86 N20       29.68S WCI  18
ALBION         LGT SNOW  30  26  86 N17G23    29.72F WCI  18
OMAHA EPPLEY   LGT SNOW  33  29  85 N15       29.63R FOG     WCI  23
OFFUTT AFB     FLURRIES  34  32  92 N12G17    29.62R WCI  26
MILLARD        LGT SNOW  35  34  94 N7        29.64R WCI  29
LINCOLN        LGT SNOW  33  31  92 NE23G35   29.58F FOG     WCI  21
NEBRASKA CITY  CLOUDY    35  35 100 N16G23    29.58R WCI  25
BEATRICE       CLOUDY    34  34  99 NE17G26   29.56F WCI  23
FALLS CITY     LGT RAIN  40  39  97 NW31G41   29.57R FOG     WCI  28

...NORTHERN KANSAS...

CITY           SKY/WX    TMP DP  RH WIND       PRES   REMARKS
GOODLAND       CLOUDY    24  22  91 N25       29.76S WCI   8
HILL CITY      CLOUDY    32  27  81 N15       29.75R WCI  22
NORTON         CLOUDY    28  25  86 NW17G23   29.73R WCI  16
PHILLIPSBURG   CLOUDY    32  28  86 NW16G22   29.72R WCI  21
SMITH CENTER   CLOUDY    30  28  93 N20       29.69S WCI  18
HAYS           CLOUDY    34  28  79 N21G30    29.70R WCI  22
RUSSELL        CLOUDY    34  31  88 NW21      29.67R WCI  22
CONCORDIA      CLOUDY    35  34  96 NW15      29.61R WCI  25
SALINA         CLOUDY    40  34  79 NW25G31   29.61R WCI  29
TOPEKA         LGT RAIN  45  43  93 NW22G37   29.50R FOG



USA.gov is the U.S. government's official web portal to all federal, state and local government web resources and services.